GW4623 Weather Reports


time (UTC)temp
C
wind
direction
speed
KPH
gust
KPH
rain 1hr
cm
rain 24hr
cm
rain mn
cm
humidity
%
barometer
mb
20260906173944 26 57 3.2 6.4 0.00 0.00 0.00 72 1019.1
20260906173439 27 201 0.0 6.4 0.00 0.00 0.00 71 1019.0
20260906172938 27 56 0.0 4.8 0.00 0.00 0.00 70 1019.1
20260906172430 27 217 3.2 6.4 0.00 0.00 0.00 69 1019.3
20260906171925 27 76 0.0 4.8 0.00 0.00 0.00 71 1019.2
20260906171420 26 31 0.0 4.8 0.00 0.00 0.00 73 1019.1
20260906170915 26 89 3.2 14.5 0.00 0.00 0.00 72 1019.4
20260906170411 26 229 1.6 11.3 0.00 0.00 0.00 73 1019.4
20260906165908 26 240 3.2 6.4 0.00 0.00 0.00 74 1019.4
20260906165407 26 207 4.8 8.0 0.00 0.00 0.00 74 1019.4
20260906164902 26 203 3.2 4.8 0.00 0.00 0.00 72 1019.3
20260906164401 27 207 3.2 6.4 0.00 0.00 0.00 71 1019.1
20260906163857 26 73 4.8 6.4 0.00 0.00 0.00 73 1019.2
20260906163353 26 220 4.8 8.0 0.00 0.00 0.00 72 1019.5
20260906162850 26 299 1.6 6.4 0.00 0.00 0.00 73 1019.7
20260906162349 26 244 1.6 3.2 0.00 0.00 0.00 74 1019.4
20260906161844 25 130 1.6 8.0 0.00 0.00 0.00 76 1019.7
20260906161343 25 234 0.0 9.7 0.00 0.00 0.00 76 1019.6
20260906160842 25 219 0.0 6.4 0.00 0.00 0.00 76 1019.7
20260906160336 25 114 1.6 4.8 0.00 0.00 0.00 79 1019.8
20260906155835 24 94 1.6 6.4 0.00 0.00 0.00 81 1019.8
20260906155329 23 228 0.0 9.7 0.00 0.00 0.00 83 1020.0
20260906154825 23 115 3.2 4.8 0.00 0.00 0.00 83 1019.7
20260906154320 23 141 1.6 4.8 0.00 0.00 0.00 84 1019.6
20260906153818 23 115 4.8 6.4 0.00 0.00 0.00 84 1019.7
20260906153312 22 261 0.0 4.8 0.00 0.00 0.00 87 1019.8
20260906152807 22 14 0.0 3.2 0.00 0.00 0.00 87 1019.9
20260906152306 22 224 3.2 4.8 0.00 0.00 0.00 88 1019.8
20260906151801 22 224 6.4 6.4 0.00 0.00 0.00 87 1019.9
20260906151258 22 171 0.0 3.2 0.00 0.00 0.00 87 1019.9
20260906150753 22 342 3.2 4.8 0.00 0.00 0.00 87 1019.9
20260906150248 22 254 3.2 4.8 0.00 0.00 0.00 87 1019.9
20260906145748 22 122 3.2 4.8 0.00 0.00 0.00 87 1019.6
20260906145246 22 291 1.6 3.2 0.00 0.00 0.00 87 1019.7
20260906144742 22 228 0.0 3.2 0.00 0.00 0.00 88 1019.7
20260906144242 22 232 3.2 3.2 0.00 0.00 0.00 88 1019.8
20260906143736 22 180 1.6 4.8 0.00 0.00 0.00 88 1019.7
20260906143233 22 89 0.0 4.8 0.00 0.00 0.00 89 1019.8
20260906142732 22 118 4.8 4.8 0.00 0.00 0.00 89 1019.6
20260906142228 22 123 3.2 4.8 0.00 0.00 0.00 89 1019.7
20260906141726 22 249 3.2 4.8 0.00 0.00 0.00 90 1019.6
20260906141222 22 222 3.2 4.8 0.00 0.00 0.00 90 1019.7
20260906140721 22 244 1.6 4.8 0.00 0.00 0.00 91 1019.6
20260906140216 22 255 1.6 4.8 0.00 0.00 0.00 91 1019.6
20260906135712 21 74 3.2 4.8 0.00 0.00 0.00 92 1019.6
20260906135209 21 93 0.0 3.2 0.00 0.00 0.00 93 1019.6
20260906134704 21 79 0.0 3.2 0.00 0.00 0.00 93 1019.4
20260906134159 21 97 1.6 4.8 0.00 0.00 0.00 94 1019.5
20260906133655 21 312 1.6 6.4 0.00 0.00 0.00 94 1019.6
20260906133149 21 141 0.0 4.8 0.00 0.00 0.00 95 1019.5
20260906132639 21 135 1.6 4.8 0.00 0.00 0.00 95 1019.3
20260906132135 20 72 3.2 4.8 0.00 0.00 0.00 97 1019.3
20260906131630 20 83 1.6 3.2 0.00 0.00 0.00 98 1019.4
20260906131125 20 120 3.2 8.0 0.00 0.00 0.00 99 1019.5
20260906130620 20 81 0.0 3.2 0.00 0.00 0.00 99 1019.3
20260906130115 20 69 0.0 3.2 0.00 0.00 0.00 99 1019.4
20260906125612 20 54 1.6 4.8 0.00 0.00 0.00 99 1019.3
20260906125106 20 20 3.2 4.8 0.00 0.00 0.00 99 1019.4
20260906124602 20 49 3.2 3.2 0.00 0.00 0.00 99 1019.3
20260906124057 19 86 1.6 4.8 0.00 0.00 0.00 99 1019.3
20260906123556 19 72 0.0 3.2 0.00 0.00 0.00 99 1019.2
20260906123051 19 77 3.2 4.8 0.00 0.00 0.00 99 1019.3
20260906122550 19 212 0.0 0.0 0.00 0.00 0.00 99 1019.3
20260906122047 18 106 0.0 3.2 0.00 0.00 0.00 99 1019.3
20260906121543 18 91 1.6 3.2 0.00 0.00 0.00 99 1019.2
20260906121039 18 77 0.0 3.2 0.00 0.00 0.00 99 1019.0
20260906120534 18 69 1.6 3.2 0.00 0.00 0.00 99 1019.1
20260906120031 18 57 1.6 3.2 0.00 0.00 0.00 99 1019.1
20260906115530 18 61 0.0 3.2 0.00 0.00 0.00 99 1019.2
20260906115026 18 58 1.6 3.2 0.00 0.00 0.00 99 1019.0
20260906114520 18 79 0.0 3.2 0.00 0.00 0.00 99 1019.1
20260906114016 18 100 0.0 1.6 0.00 0.00 0.00 99 1018.8
20260906113515 18 68 3.2 3.2 0.00 0.00 0.00 99 1018.8
20260906113010 18 85 1.6 3.2 0.00 0.00 0.00 99 1018.9
20260906112505 18 73 0.0 1.6 0.00 0.00 0.00 99 1019.0
20260906112001 18 73 0.0 3.2 0.00 0.00 0.00 99 1018.8
20260906111500 18 113 0.0 3.2 0.00 0.00 0.00 99 1018.7
20260906110956 18 49 0.0 3.2 0.00 0.00 0.00 99 1018.5
20260906110451 18 59 0.0 4.8 0.00 0.00 0.00 99 1018.6
20260906105949 18 59 1.6 3.2 0.00 0.00 0.00 99 1018.5
20260906105446 18 70 1.6 3.2 0.00 0.00 0.00 99 1018.6
20260906104941 18 37 0.0 3.2 0.00 0.00 0.00 99 1018.7
20260906104440 18 70 3.2 3.2 0.00 0.00 0.00 99 1018.5
20260906103939 18 99 1.6 1.6 0.00 0.00 0.00 99 1018.6
20260906103438 18 135 0.0 3.2 0.00 0.00 0.00 99 1018.6
20260906102933 18 50 0.0 1.6 0.00 0.00 0.00 99 1018.5
20260906102433 18 100 0.0 1.6 0.00 0.00 0.00 99 1018.6
20260906101927 18 74 0.0 3.2 0.00 0.00 0.00 99 1018.7
20260906101423 19 89 0.0 0.0 0.00 0.00 0.00 99 1018.2
20260906100918 19 53 1.6 3.2 0.00 0.00 0.00 99 1018.5
20260906100417 19 89 0.0 1.6 0.00 0.00 0.00 99 1018.4
20260906095912 19 51 1.6 3.2 0.00 0.00 0.00 99 1018.4
20260906095408 19 89 0.0 1.6 0.00 0.00 0.00 99 1018.1
20260906094907 19 84 0.0 1.6 0.00 0.00 0.00 99 1018.0
20260906094403 19 82 0.0 3.2 0.00 0.00 0.00 99 1017.8
20260906093858 20 44 3.2 4.8 0.00 0.00 0.00 99 1017.8
20260906093355 19 60 1.6 3.2 0.00 0.00 0.00 99 1017.6
20260906092855 19 60 0.0 1.6 0.00 0.00 0.00 99 1017.8
20260906092355 20 0 0.0 3.2 0.00 0.00 0.00 99 1017.7
20260906091850 20 38 0.0 1.6 0.00 0.00 0.00 98 1017.7
20260906091346 20 132 0.0 1.6 0.00 0.00 0.00 98 1017.6
20260906090842 20 36 0.0 1.6 0.00 0.00 0.00 98 1017.6
20260906090342 20 63 0.0 0.0 0.00 0.00 0.00 98 1017.7
20260906085836 20 83 0.0 1.6 0.00 0.00 0.00 98 1017.8
20260906085330 20 102 0.0 1.6 0.00 0.00 0.00 98 1017.5
20260906084825 20 57 0.0 3.2 0.00 0.00 0.00 97 1017.6
20260906084324 20 68 0.0 1.6 0.00 0.00 0.00 97 1017.8
20260906083819 20 69 0.0 3.2 0.00 0.00 0.00 97 1017.7
20260906083314 20 45 1.6 3.2 0.00 0.00 0.00 97 1017.8
20260906082808 20 70 1.6 4.8 0.00 0.00 0.00 97 1017.5
20260906082306 20 72 1.6 3.2 0.00 0.00 0.00 98 1017.6
20260906081759 20 44 0.0 3.2 0.00 0.00 0.00 97 1017.6
20260906081255 20 53 0.0 1.6 0.00 0.00 0.00 97 1017.7
20260906080751 20 37 0.0 1.6 0.00 0.00 0.00 97 1017.8
20260906080248 20 79 1.6 3.2 0.00 0.00 0.00 97 1017.6
20260906075741 20 52 0.0 1.6 0.00 0.00 0.00 97 1017.8
20260906075241 20 29 0.0 3.2 0.00 0.00 0.00 97 1017.7
20260906074737 20 81 0.0 1.6 0.00 0.00 0.00 96 1017.7
20260906074236 20 37 1.6 3.2 0.00 0.00 0.00 96 1017.7
20260906073731 20 50 3.2 3.2 0.00 0.00 0.00 96 1017.7
20260906073231 20 81 1.6 3.2 0.00 0.00 0.00 96 1017.8
20260906072726 20 45 3.2 3.2 0.00 0.00 0.00 96 1017.8
20260906072222 20 43 3.2 3.2 0.00 0.00 0.00 95 1017.8
20260906071718 21 45 1.6 3.2 0.00 0.00 0.00 95 1017.7
20260906071218 21 71 1.6 3.2 0.00 0.00 0.00 94 1018.0
20260906070714 21 37 1.6 3.2 0.00 0.00 0.00 94 1017.9
20260906070210 21 68 3.2 3.2 0.00 0.00 0.00 94 1018.2
20260906065704 21 50 0.0 3.2 0.00 0.00 0.00 94 1018.1
20260906065159 21 42 1.6 3.2 0.00 0.00 0.00 94 1018.0
20260906064655 21 68 0.0 3.2 0.00 0.00 0.00 94 1018.2
20260906064150 21 44 1.6 3.2 0.00 0.00 0.00 94 1018.0
20260906063645 21 57 1.6 3.2 0.00 0.00 0.00 94 1018.0
20260906063141 21 66 0.0 3.2 0.00 0.00 0.00 95 1018.0
20260906062637 21 59 1.6 4.8 0.00 0.00 0.00 95 1018.0
20260906062135 21 45 0.0 3.2 0.00 0.00 0.00 95 1018.0
20260906061631 21 40 0.0 3.2 0.00 0.00 0.00 95 1018.2
20260906061131 21 38 1.6 4.8 0.00 0.00 0.00 94 1018.1
20260906060627 21 53 3.2 3.2 0.00 0.00 0.00 95 1018.1
20260906060120 21 89 0.0 1.6 0.00 0.00 0.00 95 1018.1
20260906055615 21 75 0.0 3.2 0.00 0.00 0.00 94 1018.0
20260906055110 21 58 0.0 1.6 0.00 0.00 0.00 94 1018.1
20260906054610 21 100 0.0 1.6 0.00 0.00 0.00 94 1018.1
20260906054100 21 58 0.0 3.2 0.00 0.00 0.00 94 1018.2
20260906053556 21 27 3.2 3.2 0.00 0.00 0.00 94 1018.2
20260906053052 21 15 0.0 1.6 0.00 0.00 0.00 94 1018.0
20260906052547 21 38 0.0 3.2 0.00 0.00 0.00 94 1018.0
20260906052044 21 51 0.0 3.2 0.00 0.00 0.00 94 1018.0
20260906051539 21 28 0.0 1.6 0.00 0.00 0.00 94 1018.1
20260906051034 21 44 0.0 0.0 0.00 0.00 0.00 93 1017.8
20260906050530 21 113 0.0 0.0 0.00 0.00 0.00 93 1018.0
20260906050024 21 46 0.0 3.2 0.00 0.00 0.00 93 1018.1
20260906045523 21 53 0.0 0.0 0.00 0.00 0.00 93 1018.1
20260906045019 21 89 0.0 1.6 0.00 0.00 0.00 92 1018.1
20260906044514 21 75 1.6 1.6 0.00 0.00 0.00 92 1018.2
20260906044009 21 89 0.0 0.0 0.00 0.00 0.00 92 1018.1
20260906043505 21 129 0.0 0.0 0.00 0.00 0.00 92 1018.5
20260906043001 21 89 0.0 1.6 0.00 0.00 0.00 92 1018.5
20260906042500 21 50 0.0 3.2 0.00 0.00 0.00 92 1018.5
20260906041959 21 32 0.0 1.6 0.00 0.00 0.00 93 1018.2
20260906041456 21 82 0.0 1.6 0.00 0.00 0.00 92 1018.2
20260906040955 21 60 0.0 0.0 0.00 0.00 0.00 93 1018.2
20260906040450 21 66 0.0 0.0 0.00 0.00 0.00 92 1018.2
20260906035946 21 62 0.0 0.0 0.00 0.00 0.00 92 1018.4
20260906035441 21 50 0.0 1.6 0.00 0.00 0.00 91 1018.5
20260906034937 21 117 0.0 1.6 0.00 0.00 0.00 91 1018.5
20260906034436 21 49 0.0 1.6 0.00 0.00 0.00 91 1018.4
20260906033932 21 117 0.0 0.0 0.00 0.00 0.00 90 1018.5
20260906033432 21 72 0.0 1.6 0.00 0.00 0.00 90 1018.5
20260906032928 22 50 0.0 0.0 0.00 0.00 0.00 89 1018.4
20260906032424 22 50 0.0 1.6 0.00 0.00 0.00 88 1018.6
20260906031918 22 50 0.0 1.6 0.00 0.00 0.00 88 1018.4
20260906031414 22 89 0.0 1.6 0.00 0.00 0.00 87 1018.7
20260906030908 22 81 0.0 1.6 0.00 0.00 0.00 86 1018.5
20260906030404 23 70 0.0 1.6 0.00 0.00 0.00 85 1018.7
20260906025858 23 50 0.0 1.6 0.00 0.00 0.00 84 1018.6
20260906025352 23 50 0.0 3.2 0.00 0.00 0.00 83 1018.7
20260906024851 23 89 0.0 1.6 0.00 0.00 0.00 82 1018.7
20260906024351 23 38 0.0 1.6 0.00 0.00 0.00 82 1018.8
20260906023846 23 297 1.6 3.2 0.00 0.00 0.00 80 1018.6
20260906023342 24 37 0.0 0.0 0.00 0.00 0.00 80 1018.4
20260906022837 24 51 1.6 1.6 0.00 0.00 0.00 80 1018.1
20260906022337 24 50 0.0 1.6 0.00 0.00 0.00 79 1018.2
20260906021833 24 66 0.0 1.6 0.00 0.00 0.00 80 1018.0
20260906021332 24 216 0.0 3.2 0.00 0.00 0.00 80 1017.7
20260906020827 23 218 3.2 3.2 0.00 0.00 0.00 80 1017.8
20260906020326 23 131 0.0 3.2 0.00 0.00 0.00 82 1017.6
20260906015821 23 55 0.0 0.0 0.00 0.00 0.00 82 1017.4
20260906015321 23 49 0.0 1.6 0.00 0.00 0.00 82 1017.3
20260906014820 23 58 0.0 1.6 0.00 0.00 0.00 80 1017.3
20260906014316 24 7 1.6 3.2 0.00 0.00 0.00 80 1017.1
20260906013812 24 50 0.0 3.2 0.00 0.00 0.00 79 1016.8
20260906013307 24 51 1.6 3.2 0.00 0.00 0.00 78 1016.5
20260906012802 24 60 1.6 3.2 0.00 0.00 0.00 79 1016.6
20260906012257 24 66 0.0 3.2 0.00 0.00 0.00 78 1016.7
20260906011753 25 43 0.0 3.2 0.00 0.00 0.00 78 1016.3
20260906011252 25 65 1.6 4.8 0.00 0.00 0.00 77 1016.5
20260906010748 25 26 1.6 3.2 0.00 0.00 0.00 77 1016.5
20260906010244 25 13 1.6 3.2 0.00 0.00 0.00 76 1016.5
20260906005739 25 13 0.0 3.2 0.00 0.00 0.00 76 1016.1
20260906005238 25 8 1.6 3.2 0.00 0.00 0.00 76 1016.1
20260906004737 25 29 3.2 6.4 0.00 0.00 0.00 75 1015.9
20260906004232 25 56 0.0 3.2 0.00 0.00 0.00 76 1016.0
20260906003727 25 67 0.0 3.2 0.00 0.00 0.00 75 1015.8
20260906003223 26 339 0.0 3.2 0.00 0.00 0.00 74 1015.7
20260906002723 26 47 1.6 6.4 0.00 0.00 0.00 73 1015.7
20260906002218 26 40 3.2 3.2 0.00 0.00 0.00 73 1015.5
20260906001713 26 23 0.0 6.4 0.00 0.00 0.00 72 1015.5
20260906001213 26 57 3.2 6.4 0.00 0.00 0.00 72 1015.5
20260906000709 26 57 3.2 3.2 0.00 0.00 0.00 72 1015.7
20260906000204 26 89 0.0 4.8 0.00 0.00 0.00 71 1015.8
20260905235702 27 53 3.2 8.0 0.00 0.00 0.00 71 1015.9
20260905235158 27 45 3.2 3.2 0.00 0.00 0.00 71 1015.9
20260905234653 27 89 0.0 4.8 0.00 0.00 0.00 70 1016.0
20260905234148 27 347 1.6 3.2 0.00 0.00 0.00 70 1015.7
20260905233644 27 40 3.2 4.8 0.00 0.00 0.00 69 1015.8
20260905233143 27 52 3.2 6.4 0.00 0.00 0.00 68 1015.5
20260905232638 27 44 3.2 8.0 0.00 0.00 0.00 68 1015.6
20260905232134 27 298 1.6 6.4 0.00 0.00 0.00 68 1015.4
20260905231629 27 39 1.6 9.7 0.00 0.00 0.00 68 1015.4
20260905231125 27 9 1.6 1.6 0.00 0.00 0.00 68 1015.3
20260905230620 27 11 3.2 3.2 0.00 0.00 0.00 67 1015.1
20260905230119 27 25 3.2 6.4 0.00 0.00 0.00 67 1015.2
20260905225618 28 20 6.4 9.7 0.00 0.00 0.00 67 1015.3
20260905225108 28 297 0.0 3.2 0.00 0.00 0.00 68 1015.3
20260905224607 27 14 3.2 6.4 0.00 0.00 0.00 68 1015.6
20260905224107 28 54 3.2 9.7 0.00 0.00 0.00 67 1015.4
20260905223604 28 10 3.2 9.7 0.00 0.00 0.00 67 1015.3
20260905223100 28 2 4.8 8.0 0.00 0.00 0.00 67 1015.5
20260905222600 28 27 4.8 9.7 0.00 0.00 0.00 67 1015.6
20260905222055 28 81 0.0 3.2 0.00 0.00 0.00 65 1015.7
20260905221551 28 33 3.2 9.7 0.00 0.00 0.00 65 1015.4
20260905221047 29 3 3.2 4.8 0.00 0.00 0.00 66 1015.5
20260905220543 29 302 3.2 8.0 0.00 0.00 0.00 64 1015.7
20260905220039 28 349 3.2 8.0 0.00 0.00 0.00 64 1015.7
20260905215538 29 65 4.8 6.4 0.00 0.00 0.00 65 1015.7
20260905215034 29 20 3.2 4.8 0.00 0.00 0.00 65 1015.6
20260905214530 29 14 6.4 8.0 0.00 0.00 0.00 64 1015.6
20260905214025 30 24 3.2 4.8 0.00 0.00 0.00 63 1015.3
20260905213520 29 347 1.6 9.7 0.00 0.00 0.00 67 1015.3
20260905213016 30 131 4.8 8.0 0.00 0.00 0.00 65 1015.4
20260905212510 29 37 3.2 3.2 0.00 0.00 0.00 65 1015.4
20260905212010 29 31 3.2 4.8 0.00 0.00 0.00 65 1015.6
20260905211505 29 14 4.8 6.4 0.00 0.00 0.00 63 1015.8
20260905211001 30 89 0.0 4.8 0.00 0.00 0.00 62 1016.1
20260905210456 28 40 6.4 12.9 0.00 0.00 0.00 63 1016.3
20260905205955 29 300 1.6 4.8 0.00 0.00 0.00 64 1016.3
20260905205450 29 113 0.0 6.4 0.00 0.00 0.00 64 1016.6
20260905204949 30 52 0.0 3.2 0.00 0.00 0.00 62 1016.5
20260905204445 30 24 1.6 3.2 0.00 0.00 0.00 64 1016.5
20260905203944 28 68 1.6 6.4 0.00 0.00 0.00 67 1016.5
20260905203440 28 218 0.0 8.0 0.00 0.00 0.00 69 1016.6
20260905202935 27 70 3.2 11.3 0.00 0.00 0.00 69 1016.9
20260905202430 28 331 1.6 4.8 0.00 0.00 0.00 67 1016.7
20260905201926 28 305 3.2 4.8 0.00 0.00 0.00 67 1016.9
20260905201421 28 52 1.6 3.2 0.00 0.00 0.00 68 1017.0
20260905200921 28 287 1.6 4.8 0.00 0.00 0.00 67 1017.2
20260905200417 27 35 3.2 6.4 0.00 0.00 0.00 70 1017.4
20260905195915 27 40 3.2 8.0 0.00 0.00 0.00 70 1017.4
20260905195410 27 322 0.0 4.8 0.00 0.00 0.00 70 1017.5
20260905194906 27 70 3.2 8.0 0.00 0.00 0.00 71 1017.7
20260905194400 27 260 3.2 6.4 0.00 0.00 0.00 71 1017.6
20260905193859 27 114 3.2 9.7 0.00 0.00 0.00 72 1017.5
20260905193354 28 159 1.6 3.2 0.00 0.00 0.00 69 1017.3
20260905192850 28 0 0.0 4.8 0.00 0.00 0.00 71 1017.7
20260905192345 28 290 1.6 3.2 0.00 0.00 0.00 70 1017.5
20260905191844 28 174 1.6 3.2 0.00 0.00 0.00 69 1017.6
20260905191344 29 294 0.0 3.2 0.00 0.00 0.00 67 1017.4
20260905190837 28 222 0.0 4.8 0.00 0.00 0.00 70 1017.7
20260905190331 27 135 0.0 3.2 0.00 0.00 0.00 74 1017.4
20260905185829 27 41 0.0 3.2 0.00 0.00 0.00 76 1017.6
20260905185325 27 70 0.0 4.8 0.00 0.00 0.00 73 1017.5
20260905184818 26 249 3.2 6.4 0.00 0.00 0.00 74 1017.8
20260905184318 27 47 3.2 4.8 0.00 0.00 0.00 75 1017.7
20260905183816 27 316 1.6 4.8 0.00 0.00 0.00 78 1017.7
20260905183312 27 46 4.8 6.4 0.00 0.00 0.00 75 1017.5
20260905182811 26 57 3.2 3.2 0.00 0.00 0.00 76 1017.7
20260905182306 26 42 3.2 4.8 0.00 0.00 0.00 78 1017.9
20260905181802 26 306 1.6 4.8 0.00 0.00 0.00 78 1017.8
20260905181300 26 61 3.2 4.8 0.00 0.00 0.00 79 1017.7
20260905180754 26 192 1.6 3.2 0.00 0.00 0.00 79 1018.0
20260905180250 25 36 3.2 4.8 0.00 0.00 0.00 81 1018.0
20260905175750 25 109 1.6 3.2 0.00 0.00 0.00 81 1018.1
20260905175245 25 224 0.0 3.2 0.00 0.00 0.00 81 1018.1
20260905174739 25 334 0.0 4.8 0.00 0.00 0.00 81 1018.0
20260905174235 25 356 3.2 3.2 0.00 0.00 0.00 84 1017.9